Weather History for Marion, OH

Change the Weather History Date:

Sunday, October 7, 2012

  Actual Average (KDLZ) Record (KDLZ)
Temperature  
Mean Temperature 44 °F -  
Max Temperature 48 °F 65 °F 88 °F (1939)
Min Temperature 39 °F 41 °F 28 °F (1952)
Degree Days  
Heating Degree Days 20    
Moisture  
Dew Point 35 °F    
Average Humidity 72    
Maximum Humidity 86    
Minimum Humidity 54    
Precipitation  
Precipitation 0.04 in - - ()
Sea Level Pressure  
Sea Level Pressure 30.15 in    
Wind  
Wind Speed 4 mph (West)    
Max Wind Speed 9 mph    
Max Gust Speed 17 mph    
Visibility 9 miles    
Events Rain    
Averages and records for this station are not official NWS values.
T = Trace of Precipitation, MM = Missing Value Source: NWS Daily Summary

Daily Weather History Graph

Daily Weather History Graph

Search for Another Location

Airport:

Trip Planner

Search our weather history database for the weather conditions in past years. The results will help you decide how hot, cold, wet, or windy it might be!

Date:

Astronomy

Oct. 07, 2012 Rise Set
Actual Time 7:35 AM EDT 7:03 PM EDT
Civil Twilight 7:08 AM EDT 7:31 PM EDT
Nautical Twilight 6:36 AM EDT 8:02 PM EDT
Astronomical Twilight 6:04 AM EDT 8:34 PM EDT
Moon No Moon Rise 2:12 PM EDT (10/7)
Length of Visible Light 12h 23m
Length of Day
11h 28m
Waning Gibbous, 56% of the Moon is Illuminated
Oct 7
Waning Gibbous
Oct 8
Last Quarter
Oct 15
New
Oct 21
First Quarter
Oct 29
Full

Hourly Weather History & Observations

Time (EDT) Temp. Windchill Dew Point Humidity Pressure Visibility Wind Dir Wind Speed Gust Speed Precip Events Conditions
12:53 AM 43.0 °F 40.3 °F 35.1 °F 74% 30.15 in 10.0 mi WNW 4.6 mph - N/A   Mostly Cloudy
1:53 AM 42.1 °F - 36.0 °F 79% 30.14 in 10.0 mi Calm Calm - N/A   Clear
2:53 AM 42.1 °F - 36.0 °F 79% 30.13 in 10.0 mi Calm Calm - N/A   Clear
3:53 AM 41.0 °F 39.0 °F 36.0 °F 82% 30.12 in 10.0 mi WNW 3.5 mph - N/A   Clear
4:53 AM 41.0 °F 39.0 °F 36.0 °F 82% 30.12 in 10.0 mi West 3.5 mph - N/A   Scattered Clouds
5:53 AM 41.0 °F 39.0 °F 36.0 °F 82% 30.12 in 10.0 mi West 3.5 mph - N/A   Mostly Cloudy
6:53 AM 41.0 °F 39.0 °F 36.0 °F 82% 30.13 in 10.0 mi West 3.5 mph - N/A   Overcast
7:53 AM 41.0 °F 39.0 °F 37.0 °F 86% 30.13 in 10.0 mi West 3.5 mph - N/A   Overcast
8:53 AM 41.0 °F 39.0 °F 37.0 °F 86% 30.14 in 10.0 mi West 3.5 mph - N/A   Overcast
9:53 AM 43.0 °F 39.5 °F 37.0 °F 80% 30.15 in 10.0 mi NW 5.8 mph - N/A   Overcast
10:53 AM 44.1 °F 41.5 °F 37.0 °F 76% 30.16 in 10.0 mi West 4.6 mph - N/A   Overcast
12:04 PM 46.4 °F 44.3 °F 33.8 °F 62% 30.14 in 10.0 mi WNW 4.6 mph - N/A   Overcast
12:26 PM 46.4 °F 42.4 °F 35.6 °F 66% 30.14 in 10.0 mi WNW 8.1 mph - N/A   Overcast
12:35 PM 46.4 °F 44.3 °F 35.6 °F 66% 30.14 in 10.0 mi WNW 4.6 mph - N/A   Overcast
12:53 PM 46.0 °F 43.1 °F 35.1 °F 66% 30.16 in 10.0 mi WNW 5.8 mph - N/A   Overcast
1:32 PM 42.8 °F 41.1 °F 35.6 °F 76% 30.15 in 2.5 mi WNW 3.5 mph 17.3 mph 0.03 in Rain Heavy Rain
1:46 PM 42.8 °F 37.5 °F 37.4 °F 81% 30.15 in 5.0 mi WNW 9.2 mph - 0.04 in Rain Light Rain
1:53 PM 43.0 °F 37.7 °F 39.0 °F 86% 30.17 in 5.0 mi NW 9.2 mph - 0.04 in Rain Light Rain
2:16 PM 44.6 °F 40.2 °F 39.2 °F 81% 30.14 in 10.0 mi WNW 8.1 mph - 0.00 in   Overcast
2:53 PM 46.0 °F 42.5 °F 39.0 °F 76% 30.15 in 10.0 mi WNW 6.9 mph - 0.00 in   Mostly Cloudy
3:53 PM 46.9 °F - 36.0 °F 66% 30.14 in 10.0 mi WSW 4.6 mph - N/A   Mostly Cloudy
4:53 PM 48.0 °F - 34.0 °F 58% 30.14 in 10.0 mi West 9.2 mph - N/A   Mostly Cloudy
5:53 PM 48.0 °F - 32.0 °F 54% 30.15 in 10.0 mi West 8.1 mph - N/A   Overcast
6:53 PM 46.0 °F 42.5 °F 33.1 °F 61% 30.16 in 10.0 mi SW 6.9 mph - N/A   Overcast
7:53 PM 46.9 °F - 33.1 °F 59% 30.17 in 10.0 mi WSW 6.9 mph - N/A   Overcast
8:53 PM 46.0 °F 43.9 °F 33.1 °F 61% 30.18 in 10.0 mi West 4.6 mph - N/A   Overcast
9:53 PM 44.1 °F 41.5 °F 32.0 °F 63% 30.19 in 10.0 mi West 4.6 mph - N/A   Overcast
10:53 PM 43.0 °F 39.5 °F 30.0 °F 60% 30.19 in 10.0 mi SW 5.8 mph - N/A   Mostly Cloudy
11:53 PM 39.9 °F 36.7 °F 30.9 °F 70% 30.20 in 10.0 mi WSW 4.6 mph - N/A   Scattered Clouds